Simultaneous Nadir Overpasses (SNOs) Predictions

Prediction of SNOs between METOP-C and LANDSAT-8 Satellite Orbit:

Table of predicted SNOs for the next 14.0 days since TLE Epoch: 11/14/2025
Index Date (METOP-C) Time (METOP-C) Lat,Lon (METOP-C) SZA (METOP-C ) Date (LANDSAT-8) Time (LANDSAT-8) Lat,Lon (LANDSAT-8) SZA (LANDSAT-8 ) Distance(km) Time Diff (sec)
1 11/16/2025 08:07:40 -81.11, -82.60 77.80 11/16/2025 08:08:48 -81.11, -82.56 77.77 0.69 68
2 11/16/2025 08:58:18 81.14, 85.67 102.33 11/16/2025 08:58:13 81.13, 85.52 102.31 2.54 5
3 11/19/2025 03:42:01 -81.11, -16.06 77.13 11/19/2025 03:43:04 -81.11, -16.01 77.10 0.81 63
4 11/19/2025 04:32:39 81.14, 152.17 103.00 11/19/2025 04:32:29 81.14, 152.04 102.98 2.20 10
5 11/21/2025 23:16:20 -81.12, 50.73 76.48 11/21/2025 23:17:18 -81.12, 50.57 76.47 2.67 58
6 11/22/2025 00:07:00 81.13,-141.85 103.55 11/22/2025 00:06:44 81.12,-141.77 103.55 1.34 16
7 11/24/2025 18:50:41 -81.12, 117.00 75.94 11/24/2025 18:51:33 -81.11, 116.83 75.94 3.00 52
8 11/24/2025 19:41:20 81.13, -75.23 104.13 11/24/2025 19:40:58 81.13, -75.17 104.13 1.12 22
9 11/27/2025 14:25:01 -81.12,-176.48 75.42 11/27/2025 14:25:46 -81.13,-176.50 75.40 0.53 45



Historial Predications of SNOs between METOP-C and LANDSAT-8
